Weather History for Knoxville, TN

Change the Weather History Date:

Wednesday, March 19, 2014

  Actual Average Record
Temperature  
Mean Temperature 50 °F 51 °F  
Max Temperature 63 °F 62 °F 82 °F (1927)
Min Temperature 36 °F 40 °F 18 °F (1923)
Degree Days  
Heating Degree Days 15 14  
Month to date heating degree days 323 313  
Since 1 July heating degree days 3370 3209  
Cooling Degree Days 0 0  
Month to date cooling degree days 0 0  
Year to date cooling degree days 0 0  
Moisture  
Dew Point 43 °F    
Average Humidity 78    
Maximum Humidity 100    
Minimum Humidity 55    
Precipitation  
Precipitation T in 0.14 in 1.40 in (1897)
Month to date precipitation 1.66 2.61  
Year to date precipitation 9.73 11.19  
Snow  
Snow 0.00 in 0.00 in - ()
Month to date snowfall 0.2 0.6  
Since 1 July snowfall 12.1 5.7  
Snow Depth 0.00 in    
Sea Level Pressure  
Sea Level Pressure 30.01 in    
Wind  
Wind Speed 12 mph (SW)    
Max Wind Speed 33 mph    
Max Gust Speed 40 mph    
Visibility 10 miles    
Events      
T = Trace of Precipitation, MM = Missing Value Source: NWS Daily Summary

Daily Weather History Graph

Daily Weather History Graph

Search for Another Location

Airport:

Trip Planner

Search our weather history database for the weather conditions in past years. The results will help you decide how hot, cold, wet, or windy it might be!

Date:

Astronomy

Mar. 19, 2014 Rise Set
Actual Time 7:40 AM EDT 7:46 PM EDT
Civil Twilight 7:15 AM EDT 8:12 PM EDT
Nautical Twilight 6:45 AM EDT 8:42 PM EDT
Astronomical Twilight 6:15 AM EDT 9:12 PM EDT
Moon 10:57 PM EDT (3/19) 9:12 AM EDT (3/19)
Length of Visible Light 12h 56m
Length of Day
12h 05m
Waning Gibbous, 91% of the Moon is Illuminated
Mar 19
Waning Gibbous
Mar 23
Last Quarter
Mar 30
New
Apr 7
First Quarter
Apr 15
Full

Hourly Weather History & Observations

Time (EDT) Temp. Windchill Dew Point Humidity Pressure Visibility Wind Dir Wind Speed Gust Speed Precip Events Conditions
12:53 AM 45.0 °F 42.6 °F 43.0 °F 93% 30.00 in 10.0 mi West 4.6 mph - N/A   Scattered Clouds
1:53 AM 43.0 °F 39.5 °F 42.1 °F 97% 30.02 in 10.0 mi WSW 5.8 mph - N/A   Partly Cloudy
2:53 AM 41.0 °F - 39.9 °F 96% 30.03 in 10.0 mi Calm Calm - N/A   Clear
3:53 AM 39.0 °F - 37.9 °F 96% 30.03 in 7.0 mi Calm Calm - N/A   Clear
4:53 AM 42.1 °F - 39.9 °F 92% 30.02 in 10.0 mi Calm Calm - N/A   Clear
5:53 AM 37.0 °F - 35.1 °F 93% 30.03 in 7.0 mi Calm Calm - N/A   Clear
6:53 AM 37.9 °F 35.5 °F 36.0 °F 93% 30.03 in 10.0 mi ESE 3.5 mph - N/A   Clear
7:26 AM 39.0 °F 36.8 °F 37.0 °F 93% 30.03 in 10.0 mi SE 3.5 mph - N/A   Scattered Clouds
7:53 AM 39.0 °F - 37.9 °F 96% 30.05 in 10.0 mi Calm Calm - N/A   Scattered Clouds
8:53 AM 48.0 °F - 43.0 °F 83% 30.03 in 10.0 mi SSW 13.8 mph - N/A   Mostly Cloudy
9:53 AM 55.0 °F - 43.0 °F 64% 30.02 in 10.0 mi SSW 23.0 mph 28.8 mph N/A   Mostly Cloudy
10:53 AM 55.9 °F - 41.0 °F 57% 30.02 in 10.0 mi SSW 27.6 mph 40.3 mph N/A   Mostly Cloudy
11:53 AM 57.9 °F - 42.1 °F 56% 30.00 in 10.0 mi SW 24.2 mph 33.4 mph N/A   Scattered Clouds
12:53 PM 57.0 °F - 42.1 °F 57% 30.01 in 10.0 mi SW 20.7 mph 27.6 mph N/A   Mostly Cloudy
1:53 PM 60.1 °F - 44.1 °F 55% 29.97 in 10.0 mi SSW 19.6 mph 25.3 mph N/A   Mostly Cloudy
2:53 PM 62.1 °F - 44.1 °F 52% 29.95 in 10.0 mi SSW 21.9 mph 28.8 mph N/A   Overcast
3:53 PM 57.9 °F - 45.0 °F 62% 29.96 in 10.0 mi WSW 15.0 mph 28.8 mph N/A   Overcast
4:53 PM 57.9 °F - 46.0 °F 65% 29.98 in 10.0 mi WSW 20.7 mph - N/A   Overcast
5:53 PM 55.9 °F - 46.0 °F 69% 29.99 in 10.0 mi SW 20.7 mph 28.8 mph N/A   Overcast
6:53 PM 55.0 °F - 46.0 °F 72% 30.00 in 10.0 mi SW 17.3 mph - N/A   Overcast
7:53 PM 54.0 °F - 46.0 °F 75% 30.01 in 10.0 mi SW 16.1 mph - N/A   Overcast
8:53 PM 52.0 °F - 46.0 °F 80% 30.01 in 10.0 mi SW 12.7 mph - N/A   Overcast
9:53 PM 50.0 °F - 45.0 °F 83% 30.02 in 10.0 mi WSW 8.1 mph - N/A   Mostly Cloudy
10:53 PM 51.1 °F - 46.0 °F 83% 30.03 in 10.0 mi WSW 9.2 mph - N/A   Mostly Cloudy
11:53 PM 50.0 °F - 46.0 °F 86% 30.04 in 10.0 mi WSW 8.1 mph - N/A   Mostly Cloudy